Year,Month,Day,Hour,Minute,Value (Times are PST for temperature in C)
2009,07,31,00,00,19.10
2009,07,31,00,01,19.10
2009,07,31,00,02,19.10
2009,07,31,00,03,19.10
2009,07,31,00,04,19.00
2009,07,31,00,05,18.90
2009,07,31,00,06,18.90
2009,07,31,00,07,18.90
2009,07,31,00,08,18.90
2009,07,31,00,09,18.90
2009,07,31,00,10,18.80
2009,07,31,00,11,18.80
2009,07,31,00,12,18.80
2009,07,31,00,13,18.80
2009,07,31,00,14,18.80
2009,07,31,00,15,18.80
2009,07,31,00,16,18.80
2009,07,31,00,17,18.70
2009,07,31,00,18,18.70
2009,07,31,00,19,18.70
2009,07,31,00,20,18.70
2009,07,31,00,21,18.70
2009,07,31,00,22,18.70
2009,07,31,00,23,18.70
2009,07,31,00,24,18.70
2009,07,31,00,25,18.70
2009,07,31,00,26,18.70
2009,07,31,00,27,18.70
2009,07,31,00,28,18.70
2009,07,31,00,29,18.70
2009,07,31,00,30,18.70
2009,07,31,00,31,18.70
2009,07,31,00,32,18.70
2009,07,31,00,33,18.70
2009,07,31,00,34,18.70
2009,07,31,00,35,18.70
2009,07,31,00,36,18.70
2009,07,31,00,37,18.60
2009,07,31,00,38,18.60
2009,07,31,00,39,18.60
2009,07,31,00,40,18.60
2009,07,31,00,41,18.60
2009,07,31,00,42,18.70
2009,07,31,00,43,18.70
2009,07,31,00,44,18.70
2009,07,31,00,45,18.70
2009,07,31,00,46,18.70
2009,07,31,00,47,18.70
2009,07,31,00,48,18.60
2009,07,31,00,49,18.60
2009,07,31,00,50,18.60
2009,07,31,00,51,18.60
2009,07,31,00,52,18.60
2009,07,31,00,53,18.60
2009,07,31,00,54,18.50
2009,07,31,00,55,18.50
2009,07,31,00,56,18.50
2009,07,31,00,57,18.50
2009,07,31,00,58,18.50
2009,07,31,00,59,18.50
2009,07,31,01,00,18.50
2009,07,31,01,01,18.50
2009,07,31,01,02,18.50
2009,07,31,01,03,18.40
2009,07,31,01,04,18.40
2009,07,31,01,05,18.40
2009,07,31,01,06,18.30
2009,07,31,01,07,18.20
2009,07,31,01,08,18.20
2009,07,31,01,09,18.20
2009,07,31,01,10,18.10
2009,07,31,01,11,18.10
2009,07,31,01,12,18.10
2009,07,31,01,13,17.90
2009,07,31,01,14,17.90
2009,07,31,01,15,17.90
2009,07,31,01,16,17.90
2009,07,31,01,17,17.90
2009,07,31,01,18,17.90
2009,07,31,01,19,17.90
2009,07,31,01,20,17.90
2009,07,31,01,21,17.90
2009,07,31,01,22,17.90
2009,07,31,01,23,17.90
2009,07,31,01,24,17.90
2009,07,31,01,25,17.90
2009,07,31,01,26,17.90
2009,07,31,01,27,17.90
2009,07,31,01,28,17.90
2009,07,31,01,29,17.90
2009,07,31,01,30,17.90
2009,07,31,01,31,17.90
2009,07,31,01,32,17.90
2009,07,31,01,33,17.80
2009,07,31,01,34,17.80
2009,07,31,01,35,17.80
2009,07,31,01,36,17.70
2009,07,31,01,37,17.70
2009,07,31,01,38,17.60
2009,07,31,01,39,17.50
2009,07,31,01,40,17.50
2009,07,31,01,41,17.40
2009,07,31,01,42,17.30
2009,07,31,01,43,17.30
2009,07,31,01,44,17.30
2009,07,31,01,45,17.30
2009,07,31,01,46,17.30
2009,07,31,01,47,17.30
2009,07,31,01,48,17.30
2009,07,31,01,49,17.30
2009,07,31,01,50,17.20
2009,07,31,01,51,17.20
2009,07,31,01,52,17.20
2009,07,31,01,53,17.30
2009,07,31,01,54,17.30
2009,07,31,01,55,17.30
2009,07,31,01,56,17.30
2009,07,31,01,57,17.30
2009,07,31,01,58,17.30
2009,07,31,01,59,17.30
2009,07,31,02,00,17.30
2009,07,31,02,01,17.40
2009,07,31,02,02,17.40
2009,07,31,02,03,17.50
2009,07,31,02,04,17.50
2009,07,31,02,05,17.50
2009,07,31,02,06,17.60
2009,07,31,02,07,17.60
2009,07,31,02,08,17.70
2009,07,31,02,09,17.70
2009,07,31,02,10,17.80
2009,07,31,02,11,17.80
2009,07,31,02,12,17.90
2009,07,31,02,13,17.90
2009,07,31,02,14,17.90
2009,07,31,02,15,17.90
2009,07,31,02,16,17.90
2009,07,31,02,17,18.10
2009,07,31,02,18,18.10
2009,07,31,02,19,18.20
2009,07,31,02,20,18.20
2009,07,31,02,21,18.20
2009,07,31,02,22,18.30
2009,07,31,02,23,18.30
2009,07,31,02,24,18.30
2009,07,31,02,25,18.40
2009,07,31,02,26,18.40
2009,07,31,02,27,18.40
2009,07,31,02,28,18.50
2009,07,31,02,29,18.50
2009,07,31,02,30,18.50
2009,07,31,02,31,18.50
2009,07,31,02,32,18.60
2009,07,31,02,33,18.60
2009,07,31,02,34,18.70
2009,07,31,02,35,18.70
2009,07,31,02,36,18.70
2009,07,31,02,37,18.70
2009,07,31,02,38,18.70
2009,07,31,02,39,18.60
2009,07,31,02,40,18.60
2009,07,31,02,41,18.40
2009,07,31,02,42,18.30
2009,07,31,02,43,18.10
2009,07,31,02,44,17.90
2009,07,31,02,45,17.80
2009,07,31,02,46,17.70
2009,07,31,02,47,17.40
2009,07,31,02,48,17.20
2009,07,31,02,49,17.00
2009,07,31,02,50,16.90
2009,07,31,02,51,16.80
2009,07,31,02,52,16.70
2009,07,31,02,53,16.70
2009,07,31,02,54,16.60
2009,07,31,02,55,16.50
2009,07,31,02,56,16.40
2009,07,31,02,57,16.40
2009,07,31,02,58,16.40
2009,07,31,02,59,16.40
2009,07,31,03,00,16.40
2009,07,31,03,01,16.30
2009,07,31,03,02,16.20
2009,07,31,03,03,16.10
2009,07,31,03,04,16.10
2009,07,31,03,05,15.90
2009,07,31,03,06,15.80
2009,07,31,03,07,15.80
2009,07,31,03,08,15.70
2009,07,31,03,09,15.60
2009,07,31,03,10,15.50
2009,07,31,03,11,15.40
2009,07,31,03,12,15.30
2009,07,31,03,13,15.30
2009,07,31,03,14,15.30
2009,07,31,03,15,15.30
2009,07,31,03,16,15.30
2009,07,31,03,17,15.20
2009,07,31,03,18,15.20
2009,07,31,03,19,15.10
2009,07,31,03,20,15.10
2009,07,31,03,21,15.00
2009,07,31,03,22,15.00
2009,07,31,03,23,14.90
2009,07,31,03,24,14.90
2009,07,31,03,25,14.90
2009,07,31,03,26,14.80
2009,07,31,03,27,14.80
2009,07,31,03,28,14.80
2009,07,31,03,29,14.80
2009,07,31,03,30,14.80
2009,07,31,03,31,14.80
2009,07,31,03,32,14.80
2009,07,31,03,33,14.80
2009,07,31,03,34,14.70
2009,07,31,03,35,14.70
2009,07,31,03,36,14.70
2009,07,31,03,37,14.70
2009,07,31,03,38,14.70
2009,07,31,03,39,14.60
2009,07,31,03,40,14.60
2009,07,31,03,41,14.60
2009,07,31,03,42,14.60
2009,07,31,03,43,14.60
2009,07,31,03,44,14.60
2009,07,31,03,45,14.50
2009,07,31,03,46,14.50
2009,07,31,03,47,14.50
2009,07,31,03,48,14.50
2009,07,31,03,49,14.50
2009,07,31,03,50,14.40
2009,07,31,03,51,14.40
2009,07,31,03,52,14.40
2009,07,31,03,53,14.40
2009,07,31,03,54,14.40
2009,07,31,03,55,14.30
2009,07,31,03,56,14.30
2009,07,31,03,57,14.30
2009,07,31,03,58,14.30
2009,07,31,03,59,14.20
2009,07,31,04,00,14.20
2009,07,31,04,01,14.20
2009,07,31,04,02,14.20
2009,07,31,04,03,14.20
2009,07,31,04,04,14.20
2009,07,31,04,05,14.20
2009,07,31,04,06,14.20
2009,07,31,04,07,14.20
2009,07,31,04,08,14.20
2009,07,31,04,09,14.20
2009,07,31,04,10,14.20
2009,07,31,04,11,14.20
2009,07,31,04,12,14.20
2009,07,31,04,13,14.20
2009,07,31,04,14,14.20
2009,07,31,04,15,14.20
2009,07,31,04,16,14.20
2009,07,31,04,17,14.20
2009,07,31,04,18,14.20
2009,07,31,04,19,14.20
2009,07,31,04,20,14.10
2009,07,31,04,21,14.10
2009,07,31,04,22,14.10
2009,07,31,04,23,14.00
2009,07,31,04,24,14.00
2009,07,31,04,25,14.00
2009,07,31,04,26,14.00
2009,07,31,04,27,13.90
2009,07,31,04,28,13.90
2009,07,31,04,29,13.90
2009,07,31,04,30,13.90
2009,07,31,04,31,13.90
2009,07,31,04,32,13.90
2009,07,31,04,33,13.90
2009,07,31,04,34,13.80
2009,07,31,04,35,13.80
2009,07,31,04,36,13.80
2009,07,31,04,37,13.80
2009,07,31,04,38,13.70
2009,07,31,04,39,13.70
2009,07,31,04,40,13.70
2009,07,31,04,41,13.70
2009,07,31,04,42,13.70
2009,07,31,04,43,13.70
2009,07,31,04,44,13.70
2009,07,31,04,45,13.70
2009,07,31,04,46,13.70
2009,07,31,04,47,13.70
2009,07,31,04,48,13.70
2009,07,31,04,49,13.70
2009,07,31,04,50,13.70
2009,07,31,04,51,13.70
2009,07,31,04,52,13.70
2009,07,31,04,53,13.70
2009,07,31,04,54,13.70
2009,07,31,04,55,13.70
2009,07,31,04,56,13.70
2009,07,31,04,57,13.70
2009,07,31,04,58,13.70
2009,07,31,04,59,13.70
2009,07,31,05,00,13.70
2009,07,31,05,01,13.70
2009,07,31,05,02,13.70
2009,07,31,05,03,13.70
2009,07,31,05,04,13.70
2009,07,31,05,05,13.70
2009,07,31,05,06,13.70
2009,07,31,05,07,13.70
2009,07,31,05,08,13.70
2009,07,31,05,09,13.70
2009,07,31,05,10,13.70
2009,07,31,05,11,13.70
2009,07,31,05,12,13.70
2009,07,31,05,13,13.70
2009,07,31,05,14,13.70
2009,07,31,05,15,13.70
2009,07,31,05,16,13.70
2009,07,31,05,17,13.70
2009,07,31,05,18,13.70
2009,07,31,05,19,13.80
2009,07,31,05,20,13.80
2009,07,31,05,21,13.80
2009,07,31,05,22,13.80
2009,07,31,05,23,13.80
2009,07,31,05,24,13.70
2009,07,31,05,25,13.70
2009,07,31,05,26,13.70
2009,07,31,05,27,13.70
2009,07,31,05,28,13.70
2009,07,31,05,29,13.60
2009,07,31,05,30,13.60
2009,07,31,05,31,13.60
2009,07,31,05,32,13.50
2009,07,31,05,33,13.50
2009,07,31,05,34,13.50
2009,07,31,05,35,13.50
2009,07,31,05,36,13.50
2009,07,31,05,37,13.50
2009,07,31,05,38,13.50
2009,07,31,05,39,13.50
2009,07,31,05,40,13.50
2009,07,31,05,41,13.60
2009,07,31,05,42,13.60
2009,07,31,05,43,13.60
2009,07,31,05,44,13.60
2009,07,31,05,45,13.70
2009,07,31,05,46,13.70
2009,07,31,05,47,13.70
2009,07,31,05,48,13.70
2009,07,31,05,49,13.70
2009,07,31,05,50,13.70
2009,07,31,05,51,13.80
2009,07,31,05,52,13.80
2009,07,31,05,53,13.90
2009,07,31,05,54,13.90
2009,07,31,05,55,13.90
2009,07,31,05,56,14.00
2009,07,31,05,57,14.00
2009,07,31,05,58,14.00
2009,07,31,05,59,14.10
2009,07,31,06,00,14.10
2009,07,31,06,01,14.10
2009,07,31,06,02,14.20
2009,07,31,06,03,14.20
2009,07,31,06,04,14.20
2009,07,31,06,05,14.20
2009,07,31,06,06,14.20
2009,07,31,06,07,14.20
2009,07,31,06,08,14.20
2009,07,31,06,09,14.20
2009,07,31,06,10,14.20
2009,07,31,06,11,14.20
2009,07,31,06,12,14.20
2009,07,31,06,13,14.10
2009,07,31,06,14,14.10
2009,07,31,06,15,14.10
2009,07,31,06,16,14.10
2009,07,31,06,17,14.00
2009,07,31,06,18,14.00
2009,07,31,06,19,14.00
2009,07,31,06,20,13.90
2009,07,31,06,21,13.90
2009,07,31,06,22,13.90
2009,07,31,06,23,13.90
2009,07,31,06,24,13.80
2009,07,31,06,25,13.80
2009,07,31,06,26,13.80
2009,07,31,06,27,13.80
2009,07,31,06,28,13.80
2009,07,31,06,29,13.80
2009,07,31,06,30,13.80
2009,07,31,06,31,13.80
2009,07,31,06,32,13.70
2009,07,31,06,33,13.70
2009,07,31,06,34,13.70
2009,07,31,06,35,13.70
2009,07,31,06,36,13.60
2009,07,31,06,37,13.60
2009,07,31,06,38,13.60
2009,07,31,06,39,13.60
2009,07,31,06,40,13.60
2009,07,31,06,41,13.50
2009,07,31,06,42,13.50
2009,07,31,06,43,13.50
2009,07,31,06,44,13.50
2009,07,31,06,45,13.50
2009,07,31,06,46,13.50
2009,07,31,06,47,13.50
2009,07,31,06,48,13.60
2009,07,31,06,49,13.60
2009,07,31,06,50,13.60
2009,07,31,06,51,13.60
2009,07,31,06,52,13.60
2009,07,31,06,53,13.60
2009,07,31,06,54,13.60
2009,07,31,06,55,13.50
2009,07,31,06,56,13.50
2009,07,31,06,57,13.50
2009,07,31,06,58,13.50
2009,07,31,06,59,13.50
2009,07,31,07,00,13.50
2009,07,31,07,01,13.50
2009,07,31,07,02,13.50
2009,07,31,07,03,13.50
2009,07,31,07,04,13.50
2009,07,31,07,05,13.50
2009,07,31,07,06,13.50
2009,07,31,07,07,13.50
2009,07,31,07,08,13.50
2009,07,31,07,09,13.60
2009,07,31,07,10,13.60
2009,07,31,07,11,13.60
2009,07,31,07,12,13.60
2009,07,31,07,13,13.60
2009,07,31,07,14,13.60
2009,07,31,07,15,13.60
2009,07,31,07,16,13.60
2009,07,31,07,17,13.60
2009,07,31,07,18,13.60
2009,07,31,07,19,13.60
2009,07,31,07,20,13.60
2009,07,31,07,21,13.60
2009,07,31,07,22,13.60
2009,07,31,07,23,13.60
2009,07,31,07,24,13.60
2009,07,31,07,25,13.60
2009,07,31,07,26,13.60
2009,07,31,07,27,13.60
2009,07,31,07,28,13.60
2009,07,31,07,29,13.60
2009,07,31,07,30,13.70
2009,07,31,07,31,13.70
2009,07,31,07,32,13.60
2009,07,31,07,33,13.60
2009,07,31,07,34,13.60
2009,07,31,07,35,13.70
2009,07,31,07,36,13.70
2009,07,31,07,37,13.70
2009,07,31,07,38,13.70
2009,07,31,07,39,13.70
2009,07,31,07,40,13.70
2009,07,31,07,41,13.70
2009,07,31,07,42,13.70
2009,07,31,07,43,13.70
2009,07,31,07,44,13.70
2009,07,31,07,45,13.60
2009,07,31,07,46,13.60
2009,07,31,07,47,13.60
2009,07,31,07,48,13.60
2009,07,31,07,49,13.60
2009,07,31,07,50,13.60
2009,07,31,07,51,13.60
2009,07,31,07,52,13.60
2009,07,31,07,53,13.60
2009,07,31,07,54,13.60
2009,07,31,07,55,13.60
2009,07,31,07,56,13.70
2009,07,31,07,57,13.70
2009,07,31,07,58,13.70
2009,07,31,07,59,13.70
2009,07,31,08,00,13.70
2009,07,31,08,01,13.80
2009,07,31,08,02,13.80
2009,07,31,08,03,13.80
2009,07,31,08,04,13.90
2009,07,31,08,05,13.90
2009,07,31,08,06,14.00
2009,07,31,08,07,14.00
2009,07,31,08,08,14.10
2009,07,31,08,09,14.10
2009,07,31,08,10,14.10
2009,07,31,08,11,14.20
2009,07,31,08,12,14.20
2009,07,31,08,13,14.20
2009,07,31,08,14,14.30
2009,07,31,08,15,14.30
2009,07,31,08,16,14.30
2009,07,31,08,17,14.20
2009,07,31,08,18,14.20
2009,07,31,08,19,14.20
2009,07,31,08,20,14.20
2009,07,31,08,21,14.20
2009,07,31,08,22,14.20
2009,07,31,08,23,14.20
2009,07,31,08,24,14.20
2009,07,31,08,25,14.20
2009,07,31,08,26,14.20
2009,07,31,08,27,14.10
2009,07,31,08,28,14.10
2009,07,31,08,29,14.00
2009,07,31,08,30,14.00
2009,07,31,08,31,14.00
2009,07,31,08,32,14.00
2009,07,31,08,33,14.00
2009,07,31,08,34,13.90
2009,07,31,08,35,13.90
2009,07,31,08,36,13.90
2009,07,31,08,37,13.90
2009,07,31,08,38,13.90
2009,07,31,08,39,13.90
2009,07,31,08,40,13.90
2009,07,31,08,41,13.90
2009,07,31,08,42,13.90
2009,07,31,08,43,13.90
2009,07,31,08,44,13.90
2009,07,31,08,45,14.00
2009,07,31,08,46,14.00
2009,07,31,08,47,14.00
2009,07,31,08,48,14.00
2009,07,31,08,49,14.00
2009,07,31,08,50,14.00
2009,07,31,08,51,14.00
2009,07,31,08,52,14.10
2009,07,31,08,53,14.10
2009,07,31,08,54,14.20
2009,07,31,08,55,14.20
2009,07,31,08,56,14.20
2009,07,31,08,57,14.20
2009,07,31,08,58,14.20
2009,07,31,08,59,14.20
2009,07,31,09,00,14.20
2009,07,31,09,01,14.10
2009,07,31,09,02,14.10
2009,07,31,09,03,14.10
2009,07,31,09,04,14.20
2009,07,31,09,05,14.20
2009,07,31,09,06,14.20
2009,07,31,09,07,14.20
2009,07,31,09,08,14.30
2009,07,31,09,09,14.30
2009,07,31,09,10,14.30
2009,07,31,09,11,14.30
2009,07,31,09,12,14.30
2009,07,31,09,13,14.30
2009,07,31,09,14,14.30
2009,07,31,09,15,14.40
2009,07,31,09,16,14.40
2009,07,31,09,17,14.40
2009,07,31,09,18,14.40
2009,07,31,09,19,14.30
2009,07,31,09,20,14.30
2009,07,31,09,21,14.20
2009,07,31,09,22,14.30
2009,07,31,09,23,14.30
2009,07,31,09,24,14.30
2009,07,31,09,25,14.40
2009,07,31,09,26,14.40
2009,07,31,09,27,14.40
2009,07,31,09,28,14.30
2009,07,31,09,29,14.20
2009,07,31,09,30,14.20
2009,07,31,09,31,14.10
2009,07,31,09,32,14.10
2009,07,31,09,33,14.00
2009,07,31,09,34,14.10
2009,07,31,09,35,14.10
2009,07,31,09,36,14.00
2009,07,31,09,37,14.00
2009,07,31,09,38,13.90
2009,07,31,09,39,13.90
2009,07,31,09,40,13.90
2009,07,31,09,41,13.90
2009,07,31,09,42,14.00
2009,07,31,09,43,13.90
2009,07,31,09,44,13.90
2009,07,31,09,45,13.90
2009,07,31,09,46,13.90
2009,07,31,09,47,13.90
2009,07,31,09,48,13.80
2009,07,31,09,49,13.80
2009,07,31,09,50,13.90
2009,07,31,09,51,13.90
2009,07,31,09,52,14.00
2009,07,31,09,53,14.00
2009,07,31,09,54,14.00
2009,07,31,09,55,14.20
2009,07,31,09,56,14.20
2009,07,31,09,57,14.20
2009,07,31,09,58,14.10
2009,07,31,09,59,14.10
2009,07,31,10,00,14.10
2009,07,31,10,01,14.10
2009,07,31,10,02,14.10
2009,07,31,10,03,14.00
2009,07,31,10,04,13.90
2009,07,31,10,05,13.90
2009,07,31,10,06,13.80
2009,07,31,10,07,13.80
2009,07,31,10,08,13.80
2009,07,31,10,09,13.90
2009,07,31,10,10,14.00
2009,07,31,10,11,14.00
2009,07,31,10,12,14.00
2009,07,31,10,13,14.00
2009,07,31,10,14,14.00
2009,07,31,10,15,14.00
2009,07,31,10,16,14.00
2009,07,31,10,17,13.90
2009,07,31,10,18,13.90
2009,07,31,10,19,13.80
2009,07,31,10,20,13.80
2009,07,31,10,21,13.90
2009,07,31,10,22,13.90
2009,07,31,10,23,13.90
2009,07,31,10,24,13.90
2009,07,31,10,25,13.90
2009,07,31,10,26,13.90
2009,07,31,10,27,14.00
2009,07,31,10,28,14.00
2009,07,31,10,29,14.00
2009,07,31,10,30,14.00
2009,07,31,10,31,14.00
2009,07,31,10,32,14.00
2009,07,31,10,33,14.10
2009,07,31,10,34,14.20
2009,07,31,10,35,14.20
2009,07,31,10,36,14.20
2009,07,31,10,37,14.10
2009,07,31,10,38,14.10
2009,07,31,10,39,14.10
2009,07,31,10,40,14.10
2009,07,31,10,41,14.10
2009,07,31,10,42,14.10
2009,07,31,10,43,14.10
2009,07,31,10,44,14.10
2009,07,31,10,45,14.10
2009,07,31,10,46,14.20
2009,07,31,10,47,14.20
2009,07,31,10,48,14.30
2009,07,31,10,49,14.50
2009,07,31,10,50,14.50
2009,07,31,10,51,14.50
2009,07,31,10,52,14.50
2009,07,31,10,53,14.50
2009,07,31,10,54,14.50
2009,07,31,10,55,14.50
2009,07,31,10,56,14.50
2009,07,31,10,57,14.60
2009,07,31,10,58,14.70
2009,07,31,10,59,14.80
2009,07,31,11,00,14.90
2009,07,31,11,01,15.10
2009,07,31,11,02,15.20
2009,07,31,11,03,15.20
2009,07,31,11,04,15.20
2009,07,31,11,05,15.10
2009,07,31,11,06,15.10
2009,07,31,11,07,15.00
2009,07,31,11,08,14.90
2009,07,31,11,09,14.90
2009,07,31,11,10,14.90
2009,07,31,11,11,14.90
2009,07,31,11,12,15.00
2009,07,31,11,13,15.10
2009,07,31,11,14,15.10
2009,07,31,11,15,15.00
2009,07,31,11,16,14.90
2009,07,31,11,17,14.80
2009,07,31,11,18,14.80
2009,07,31,11,19,14.80
2009,07,31,11,20,14.80
2009,07,31,11,21,14.80
2009,07,31,11,22,14.80
2009,07,31,11,23,14.70
2009,07,31,11,24,14.70
2009,07,31,11,25,14.80
2009,07,31,11,26,14.70
2009,07,31,11,27,14.60
2009,07,31,11,28,14.70
2009,07,31,11,29,14.60
2009,07,31,11,30,14.60
2009,07,31,11,31,14.70
2009,07,31,11,32,14.70
2009,07,31,11,33,14.70
2009,07,31,11,34,14.60
2009,07,31,11,35,14.60
2009,07,31,11,36,14.60
2009,07,31,11,37,14.60
2009,07,31,11,38,14.70
2009,07,31,11,39,14.80
2009,07,31,11,40,14.80
2009,07,31,11,41,14.80
2009,07,31,11,42,14.70
2009,07,31,11,43,14.80
2009,07,31,11,44,14.80
2009,07,31,11,45,14.90
2009,07,31,11,46,14.90
2009,07,31,11,47,14.90
2009,07,31,11,48,14.90
2009,07,31,11,49,15.00
2009,07,31,11,50,15.00
2009,07,31,11,51,15.10
2009,07,31,11,52,15.10
2009,07,31,11,53,15.20
2009,07,31,11,54,15.30
2009,07,31,11,55,15.30
2009,07,31,11,56,15.30
2009,07,31,11,57,15.40
2009,07,31,11,58,15.40
2009,07,31,11,59,15.40
2009,07,31,12,00,15.40
2009,07,31,12,01,15.50
2009,07,31,12,02,15.40
2009,07,31,12,03,15.30
2009,07,31,12,04,15.30
2009,07,31,12,05,15.30
2009,07,31,12,06,15.30
2009,07,31,12,07,15.30
2009,07,31,12,08,15.30
2009,07,31,12,09,15.30
2009,07,31,12,10,15.30
2009,07,31,12,11,15.30
2009,07,31,12,12,15.30
2009,07,31,12,13,15.30
2009,07,31,12,14,15.30
2009,07,31,12,15,15.30
2009,07,31,12,16,15.30
2009,07,31,12,17,15.30
2009,07,31,12,18,15.30
2009,07,31,12,19,15.30
2009,07,31,12,20,15.30
2009,07,31,12,21,15.30
2009,07,31,12,22,15.40
2009,07,31,12,23,15.40
2009,07,31,12,24,15.60
2009,07,31,12,25,15.60
2009,07,31,12,26,15.70
2009,07,31,12,27,15.70
2009,07,31,12,28,15.50
2009,07,31,12,29,15.50
2009,07,31,12,30,15.30
2009,07,31,12,31,15.30
2009,07,31,12,32,15.30
2009,07,31,12,33,15.30
2009,07,31,12,34,15.40
2009,07,31,12,35,15.50
2009,07,31,12,36,15.50
2009,07,31,12,37,15.70
2009,07,31,12,38,15.80
2009,07,31,12,39,16.00
2009,07,31,12,40,16.10
2009,07,31,12,41,16.30
2009,07,31,12,42,16.50
2009,07,31,12,43,16.60
2009,07,31,12,44,16.70
2009,07,31,12,45,16.80
2009,07,31,12,46,16.90
2009,07,31,12,47,17.00
2009,07,31,12,48,17.00
2009,07,31,12,49,17.00
2009,07,31,12,50,17.10
2009,07,31,12,51,17.10
2009,07,31,12,52,17.10
2009,07,31,12,53,17.10
2009,07,31,12,54,17.10
2009,07,31,12,55,17.00
2009,07,31,12,56,17.10
2009,07,31,12,57,17.20
2009,07,31,12,58,17.20
2009,07,31,12,59,17.20
2009,07,31,13,00,17.20
2009,07,31,13,01,17.30
2009,07,31,13,02,17.40
2009,07,31,13,03,17.50
2009,07,31,13,04,17.60
2009,07,31,13,05,17.60
2009,07,31,13,06,17.50
2009,07,31,13,07,17.30
2009,07,31,13,08,17.30
2009,07,31,13,09,17.20
2009,07,31,13,10,17.20
2009,07,31,13,11,17.30
2009,07,31,13,12,17.30
2009,07,31,13,13,17.20
2009,07,31,13,14,17.20
2009,07,31,13,15,17.10
2009,07,31,13,16,17.00
2009,07,31,13,17,17.00
2009,07,31,13,18,17.00
2009,07,31,13,19,16.90
2009,07,31,13,20,16.90
2009,07,31,13,21,16.90
2009,07,31,13,22,17.00
2009,07,31,13,23,17.10
2009,07,31,13,24,17.20
2009,07,31,13,25,17.30
2009,07,31,13,26,17.30
2009,07,31,13,27,17.40
2009,07,31,13,28,17.40
2009,07,31,13,29,17.40
2009,07,31,13,30,17.40
2009,07,31,13,31,17.40
2009,07,31,13,32,17.50
2009,07,31,13,33,17.70
2009,07,31,13,34,17.80
2009,07,31,13,35,17.90
2009,07,31,13,36,17.90
2009,07,31,13,37,18.10
2009,07,31,13,38,18.10
2009,07,31,13,39,18.20
2009,07,31,13,40,18.20
2009,07,31,13,41,18.20
2009,07,31,13,42,18.30
2009,07,31,13,43,18.30
2009,07,31,13,44,18.30
2009,07,31,13,45,18.40
2009,07,31,13,46,18.40
2009,07,31,13,47,18.40
2009,07,31,13,48,18.30
2009,07,31,13,49,18.30
2009,07,31,13,50,18.20
2009,07,31,13,51,18.00
2009,07,31,13,52,17.90
2009,07,31,13,53,17.90
2009,07,31,13,54,17.90
2009,07,31,13,55,17.80
2009,07,31,13,56,17.70
2009,07,31,13,57,17.70
2009,07,31,13,58,17.70
2009,07,31,13,59,17.70
2009,07,31,14,00,17.70
2009,07,31,14,01,17.80
2009,07,31,14,02,17.80
2009,07,31,14,03,17.80
2009,07,31,14,04,17.80
2009,07,31,14,05,17.90
2009,07,31,14,06,17.90
2009,07,31,14,07,17.90
2009,07,31,14,08,17.90
2009,07,31,14,09,17.90
2009,07,31,14,10,18.00
2009,07,31,14,11,18.00
2009,07,31,14,12,17.90
2009,07,31,14,13,18.00
2009,07,31,14,14,18.10
2009,07,31,14,15,18.20
2009,07,31,14,16,18.30
2009,07,31,14,17,18.50
2009,07,31,14,18,18.60
2009,07,31,14,19,18.80
2009,07,31,14,20,18.90
2009,07,31,14,21,18.90
2009,07,31,14,22,18.90
2009,07,31,14,23,18.80
2009,07,31,14,24,18.70
2009,07,31,14,25,18.70
2009,07,31,14,26,18.70
2009,07,31,14,27,18.70
2009,07,31,14,28,18.60
2009,07,31,14,29,18.50
2009,07,31,14,30,18.50
2009,07,31,14,31,18.50
2009,07,31,14,32,18.60
2009,07,31,14,33,18.60
2009,07,31,14,34,18.70
2009,07,31,14,35,18.70
2009,07,31,14,36,18.70
2009,07,31,14,37,18.90
2009,07,31,14,38,19.00
2009,07,31,14,39,19.10
2009,07,31,14,40,19.30
2009,07,31,14,41,19.40
2009,07,31,14,42,19.40
2009,07,31,14,43,19.40
2009,07,31,14,44,19.60
2009,07,31,14,45,19.70
2009,07,31,14,46,19.70
2009,07,31,14,47,19.70
2009,07,31,14,48,19.70
2009,07,31,14,49,19.60
2009,07,31,14,50,19.60
2009,07,31,14,51,19.60
2009,07,31,14,52,19.70
2009,07,31,14,53,19.70
2009,07,31,14,54,19.70
2009,07,31,14,55,19.60
2009,07,31,14,56,19.50
2009,07,31,14,57,19.50
2009,07,31,14,58,19.40
2009,07,31,14,59,19.40
2009,07,31,15,00,19.50
2009,07,31,15,01,19.50
2009,07,31,15,02,19.60
2009,07,31,15,03,19.70
2009,07,31,15,04,19.70
2009,07,31,15,05,19.80
2009,07,31,15,06,19.90
2009,07,31,15,07,20.00
2009,07,31,15,08,20.10
2009,07,31,15,09,20.00
2009,07,31,15,10,19.90
2009,07,31,15,11,19.90
2009,07,31,15,12,19.90
2009,07,31,15,13,19.90
2009,07,31,15,14,19.90
2009,07,31,15,15,19.90
2009,07,31,15,16,19.90
2009,07,31,15,17,19.90
2009,07,31,15,18,19.80
2009,07,31,15,19,19.70
2009,07,31,15,20,19.70
2009,07,31,15,21,19.70
2009,07,31,15,22,19.70
2009,07,31,15,23,19.70
2009,07,31,15,24,19.60
2009,07,31,15,25,19.60
2009,07,31,15,26,19.50
2009,07,31,15,27,19.50
2009,07,31,15,28,19.60
2009,07,31,15,29,19.60
2009,07,31,15,30,19.70
2009,07,31,15,31,19.80
2009,07,31,15,32,19.70
2009,07,31,15,33,19.70
2009,07,31,15,34,19.60
2009,07,31,15,35,19.50
2009,07,31,15,36,19.60
2009,07,31,15,37,19.60
2009,07,31,15,38,19.50
2009,07,31,15,39,19.40
2009,07,31,15,40,19.30
2009,07,31,15,41,19.20
2009,07,31,15,42,19.30
2009,07,31,15,43,19.30
2009,07,31,15,44,19.40
2009,07,31,15,45,19.50
2009,07,31,15,46,19.70
2009,07,31,15,47,19.90
2009,07,31,15,48,20.00
2009,07,31,15,49,20.10
2009,07,31,15,50,20.20
2009,07,31,15,51,20.20
2009,07,31,15,52,20.20
2009,07,31,15,53,20.10
2009,07,31,15,54,19.90
2009,07,31,15,55,19.90
2009,07,31,15,56,19.80
2009,07,31,15,57,19.70
2009,07,31,15,58,19.60
2009,07,31,15,59,19.50
2009,07,31,16,00,19.50
2009,07,31,16,01,19.60
2009,07,31,16,02,19.60
2009,07,31,16,03,19.80
2009,07,31,16,04,19.90
2009,07,31,16,05,20.00
2009,07,31,16,06,20.20
2009,07,31,16,07,20.40
2009,07,31,16,08,20.50
2009,07,31,16,09,20.60
2009,07,31,16,10,20.70
2009,07,31,16,11,20.70
2009,07,31,16,12,20.60
2009,07,31,16,13,20.50
2009,07,31,16,14,20.40
2009,07,31,16,15,20.30
2009,07,31,16,16,20.30
2009,07,31,16,17,20.30
2009,07,31,16,18,20.20
2009,07,31,16,19,20.10
2009,07,31,16,20,20.00
2009,07,31,16,21,19.90
2009,07,31,16,22,19.90
2009,07,31,16,23,19.90
2009,07,31,16,24,20.00
2009,07,31,16,25,20.10
2009,07,31,16,26,20.10
2009,07,31,16,27,20.20
2009,07,31,16,28,20.20
2009,07,31,16,29,20.40
2009,07,31,16,30,20.50
2009,07,31,16,31,20.70
2009,07,31,16,32,20.80
2009,07,31,16,33,20.80
2009,07,31,16,34,20.90
2009,07,31,16,35,21.00
2009,07,31,16,36,21.10
2009,07,31,16,37,21.20
2009,07,31,16,38,21.20
2009,07,31,16,39,21.20
2009,07,31,16,40,21.20
2009,07,31,16,41,21.20
2009,07,31,16,42,21.30
2009,07,31,16,43,21.20
2009,07,31,16,44,21.20
2009,07,31,16,45,21.20
2009,07,31,16,46,21.20
2009,07,31,16,47,21.20
2009,07,31,16,48,21.20
2009,07,31,16,49,21.20
2009,07,31,16,50,21.20
2009,07,31,16,51,21.20
2009,07,31,16,52,21.20
2009,07,31,16,53,21.20
2009,07,31,16,54,21.10
2009,07,31,16,55,21.00
2009,07,31,16,56,20.90
2009,07,31,16,57,20.70
2009,07,31,16,58,20.50
2009,07,31,16,59,20.40
2009,07,31,17,00,20.40
2009,07,31,17,01,20.40
2009,07,31,17,02,20.50
2009,07,31,17,03,20.50
2009,07,31,17,04,20.50
2009,07,31,17,05,20.50
2009,07,31,17,06,20.60
2009,07,31,17,07,20.50
2009,07,31,17,08,20.50
2009,07,31,17,09,20.50
2009,07,31,17,10,20.40
2009,07,31,17,11,20.40
2009,07,31,17,12,20.30
2009,07,31,17,13,20.20
2009,07,31,17,14,20.10
2009,07,31,17,15,20.10
2009,07,31,17,16,20.10
2009,07,31,17,17,20.00
2009,07,31,17,18,20.10
2009,07,31,17,19,20.20